• In Czech Republic
  • List of Countries
  • For 7 days
  • Water Temperature
  • Satellite Maps
  • Weather Map
  • Weather Widgets
  • user-avatar
    Login

    Hourly Weather Salgotarjan

    Today, 20 February, Tuesday

    Time Temperature Precipitation Wind Pressure Humidity
    00:00 -3°C° 0 mm 2 mps 732 mmHg 74%
    01:00 -3°C° 0 mm 2 mps 732 mmHg 74%
    02:00 -3°C° 0 mm 2 mps 732 mmHg 73%
    03:00 -3°C° 0 mm 2 mps 732 mmHg 72%
    04:00 -3°C° 0 mm 2 mps 731 mmHg 71%
    05:00 -3°C° 0 mm 2 mps 731 mmHg 72%
    06:00 -4°C° 0 mm 3 mps 731 mmHg 72%
    07:00 -4°C° 0 mm 3 mps 731 mmHg 72%
    08:00 -2°C° 0 mm 3 mps 731 mmHg 70%
    09:00 -1°C° 0 mm 3 mps 731 mmHg 68%
    10:00 -1°C° 0 mm 4 mps 731 mmHg 66%
    11:00 +1°C° 0.1 mm 3 mps 730 mmHg 65%
    12:00 +2°C° 0.1 mm 3 mps 730 mmHg 65%
    13:00 +2°C° 0.1 mm 3 mps 730 mmHg 65%
    14:00 +2°C° 0.2 mm 3 mps 730 mmHg 67%
    15:00 +1°C° 0.2 mm 3 mps 729 mmHg 70%
    16:00 +1°C° 0.2 mm 3 mps 729 mmHg 73%
    17:00 +1°C° 0.5 mm 3 mps 729 mmHg 74%
    18:00 0°C° 0.5 mm 3 mps 729 mmHg 76%
    19:00 0°C° 0.5 mm 3 mps 729 mmHg 77%
    20:00 0°C° 0.5 mm 3 mps 729 mmHg 78%
    21:00 0°C° 0.5 mm 3 mps 730 mmHg 78%
    22:00 -1°C° 0.5 mm 3 mps 730 mmHg 79%
    23:00 -1°C° 0.5 mm 3 mps 730 mmHg 82%

    Tomorrow, 21 February, Wednesday

    Time Temperature Precipitation Wind Pressure Humidity
    00:00 -1°C° 0.5 mm 3 mps 730 mmHg 84%
    01:00 -1°C° 0.5 mm 3 mps 730 mmHg 86%
    02:00 -1°C° 0.3 mm 3 mps 730 mmHg 87%
    03:00 -1°C° 0.3 mm 2 mps 730 mmHg 89%
    04:00 -1°C° 0.3 mm 2 mps 730 mmHg 90%
    05:00 -1°C° 0.1 mm 2 mps 730 mmHg 90%
    06:00 -2°C° 0.1 mm 2 mps 730 mmHg 90%
    07:00 -2°C° 0.1 mm 2 mps 730 mmHg 90%
    08:00 -1°C° 0.1 mm 2 mps 730 mmHg 88%
    09:00 +1°C° 0.1 mm 2 mps 731 mmHg 86%
    10:00 +2°C° 0.1 mm 2 mps 731 mmHg 85%
    11:00 +2°C° 0 mm 2 mps 731 mmHg 83%
    12:00 +3°C° 0 mm 2 mps 730 mmHg 81%
    13:00 +4°C° 0 mm 2 mps 730 mmHg 79%
    14:00 +3°C° 0 mm 2 mps 730 mmHg 81%
    15:00 +4°C° 0 mm 1 mps 730 mmHg 83%
    16:00 +4°C° 0 mm 1 mps 730 mmHg 85%
    17:00 +2°C° 0 mm 2 mps 730 mmHg 85%
    18:00 +1°C° 0 mm 2 mps 730 mmHg 85%
    19:00 -1°C° 0 mm 2 mps 730 mmHg 85%
    20:00 -1°C° 0 mm 2 mps 730 mmHg 85%
    21:00 -2°C° 0 mm 3 mps 730 mmHg 84%
    22:00 -2°C° 0 mm 3 mps 730 mmHg 84%
    23:00 -4°C° 0 mm 3 mps 730 mmHg 83%

    Day after tomorrow, 22 February, Thursday

    Time Temperature Precipitation Wind Pressure Humidity
    00:00 -4°C° 0 mm 3 mps 730 mmHg 82%
    01:00 -4°C° 0 mm 3 mps 730 mmHg 81%
    02:00 -4°C° 0 mm 3 mps 730 mmHg 80%
    03:00 -4°C° 0 mm 3 mps 730 mmHg 79%
    04:00 -4°C° 0 mm 3 mps 730 mmHg 79%
    05:00 -4°C° 0 mm 3 mps 729 mmHg 78%
    06:00 -4°C° 0 mm 3 mps 729 mmHg 78%
    07:00 -4°C° 0 mm 3 mps 729 mmHg 78%
    08:00 -3°C° 0 mm 4 mps 729 mmHg 75%
    09:00 -2°C° 0 mm 4 mps 730 mmHg 73%
    10:00 -1°C° 0 mm 4 mps 730 mmHg 71%
    11:00 0°C° 0 mm 4 mps 729 mmHg 70%
    12:00 +1°C° 0 mm 4 mps 729 mmHg 70%
    13:00 +3°C° 0 mm 4 mps 729 mmHg 69%
    14:00 +1°C° 0 mm 4 mps 729 mmHg 70%
    15:00 +1°C° 0 mm 4 mps 729 mmHg 72%
    16:00 0°C° 0 mm 4 mps 729 mmHg 73%
    17:00 0°C° 0 mm 3 mps 729 mmHg 75%
    18:00 -1°C° 0 mm 3 mps 729 mmHg 77%
    19:00 -2°C° 0 mm 3 mps 729 mmHg 79%
    20:00 -2°C° 0 mm 3 mps 729 mmHg 79%
    21:00 -2°C° 0 mm 3 mps 729 mmHg 79%
    22:00 -2°C° 0 mm 3 mps 730 mmHg 80%
    23:00 -2°C° 0 mm 3 mps 730 mmHg 79%

    23 February, Friday

    Time Temperature Precipitation Wind Pressure Humidity
    00:00 -4°C° 0 mm 3 mps 729 mmHg 79%
    01:00 -4°C° 0 mm 3 mps 729 mmHg 79%
    02:00 -4°C° 0 mm 3 mps 729 mmHg 78%
    03:00 -2°C° 0 mm 3 mps 729 mmHg 78%
    04:00 -2°C° 0 mm 3 mps 729 mmHg 78%
    05:00 -2°C° 0 mm 3 mps 729 mmHg 77%
    06:00 -2°C° 0 mm 3 mps 729 mmHg 77%
    07:00 -2°C° 0 mm 3 mps 729 mmHg 77%
    08:00 -2°C° 0 mm 3 mps 730 mmHg 74%
    09:00 -1°C° 0 mm 3 mps 730 mmHg 72%
    10:00 -1°C° 0 mm 4 mps 730 mmHg 69%
    11:00 -1°C° 0.1 mm 4 mps 730 mmHg 69%
    12:00 0°C° 0.1 mm 4 mps 730 mmHg 68%
    13:00 0°C° 0.1 mm 4 mps 730 mmHg 67%
    14:00 0°C° 0 mm 4 mps 730 mmHg 68%
    15:00 0°C° 0 mm 3 mps 730 mmHg 69%
    16:00 0°C° 0 mm 3 mps 730 mmHg 70%
    17:00 -2°C° 0 mm 4 mps 730 mmHg 71%
    18:00 -3°C° 0 mm 4 mps 730 mmHg 72%
    19:00 -4°C° 0 mm 4 mps 730 mmHg 73%
    20:00 -5°C° 0 mm 4 mps 731 mmHg 72%
    21:00 -5°C° 0 mm 4 mps 731 mmHg 71%
    22:00 -7°C° 0 mm 4 mps 731 mmHg 70%
    23:00 -8°C° 0 mm 4 mps 731 mmHg 68%

    24 February, Saturday

    Time Temperature Precipitation Wind Pressure Humidity
    00:00 -8°C° 0 mm 4 mps 731 mmHg 65%
    01:00 -9°C° 0 mm 4 mps 731 mmHg 63%
    02:00 -10°C° 0 mm 5 mps 731 mmHg 60%
    03:00 -11°C° 0 mm 5 mps 731 mmHg 57%
    04:00 -11°C° 0 mm 5 mps 731 mmHg 54%
    05:00 -11°C° 0 mm 5 mps 732 mmHg 54%
    06:00 -12°C° 0 mm 5 mps 732 mmHg 53%
    07:00 -12°C° 0 mm 5 mps 733 mmHg 52%
    08:00 -11°C° 0 mm 5 mps 733 mmHg 49%
    09:00 -11°C° 0 mm 5 mps 733 mmHg 46%
    10:00 -10°C° 0 mm 5 mps 734 mmHg 43%
    11:00 -8°C° 0 mm 5 mps 734 mmHg 41%
    12:00 -8°C° 0 mm 4 mps 734 mmHg 39%
    13:00 -7°C° 0 mm 4 mps 734 mmHg 37%
    14:00 -7°C° 0 mm 4 mps 734 mmHg 38%
    15:00 -7°C° 0 mm 4 mps 734 mmHg 39%
    16:00 -7°C° 0 mm 4 mps 734 mmHg 40%
    17:00 -7°C° 0 mm 3 mps 734 mmHg 42%
    18:00 -8°C° 0 mm 3 mps 734 mmHg 45%
    19:00 -7°C° 0 mm 2 mps 735 mmHg 48%
    20:00 -8°C° 0 mm 2 mps 735 mmHg 48%
    21:00 -8°C° 0 mm 2 mps 734 mmHg 49%
    22:00 -7°C° 0 mm 1 mps 734 mmHg 50%
    23:00 -7°C° 0 mm 1 mps 734 mmHg 52%

    25 February, Sunday

    Time Temperature Precipitation Wind Pressure Humidity
    00:00 -8°C° 0 mm 2 mps 734 mmHg 54%
    01:00 -8°C° 0 mm 2 mps 734 mmHg 56%
    02:00 -9°C° 0 mm 2 mps 734 mmHg 59%
    03:00 -9°C° 0 mm 2 mps 734 mmHg 62%
    04:00 -9°C° 0 mm 2 mps 733 mmHg 65%
    05:00 -9°C° 0 mm 2 mps 734 mmHg 66%
    06:00 -8°C° 0 mm 1 mps 734 mmHg 67%
    07:00 -9°C° 0 mm 1 mps 734 mmHg 67%
    08:00 -8°C° 0 mm 1 mps 734 mmHg 60%
    09:00 -7°C° 0 mm 1 mps 734 mmHg 53%
    10:00 -6°C° 0 mm 1 mps 734 mmHg 46%
    11:00 -6°C° 0 mm 1 mps 734 mmHg 44%
    12:00 -4°C° 0 mm 1 mps 734 mmHg 42%
    13:00 -4°C° 0 mm 1 mps 733 mmHg 41%
    14:00 -4°C° 0 mm 1 mps 733 mmHg 41%
    15:00 -4°C° 0 mm 1 mps 733 mmHg 41%
    16:00 -4°C° 0 mm 1 mps 733 mmHg 42%
    17:00 -6°C° 0 mm 1 mps 733 mmHg 46%
    18:00 -6°C° 0 mm 1 mps 733 mmHg 50%
    19:00 -7°C° 0 mm 1 mps 733 mmHg 54%
    20:00 -7°C° 0 mm 1 mps 733 mmHg 57%
    21:00 -7°C° 0 mm 1 mps 733 mmHg 59%
    22:00 -7°C° 0 mm 1 mps 733 mmHg 62%
    23:00 -8°C° 0 mm 1 mps 733 mmHg 64%
    Show more